Change the Weather History Date:

Monday, July 14, 2014

  Actual Average Record
Temperature  
Mean Temperature 78 °F -  
Max Temperature 86 °F 77 °F 96 °F (1980)
Min Temperature 71 °F 57 °F 19 °F (1994)
Cooling Degree Days 12    
Growing Degree Days 28 (Base 50)    
Moisture  
Dew Point 70 °F    
Average Humidity 84    
Maximum Humidity 93    
Minimum Humidity 58    
Precipitation  
Precipitation 0.11 in - - ()
Sea Level Pressure  
Sea Level Pressure 29.87 in    
Wind  
Wind Speed 8 mph (SSW)    
Max Wind Speed 15 mph    
Max Gust Speed 21 mph    
Visibility 7 miles    
Events Rain , Thunderstorm    
Averages and records for this station are not official NWS values.
T = Trace of Precipitation, MM = Missing Value Source: NWS Daily Summary

Daily Weather History Graph

Daily Weather History Graph

Search for Another Location

Airport or City:

Trip Planner

Search our weather history database for the weather conditions in past years. The results will help you decide how hot, cold, wet, or windy it might be!

Date:

Astronomy

Jul. 14, 2014 Rise Set
Actual Time 5:18 AM EDT 8:20 PM EDT
Civil Twilight 4:44 AM EDT 8:53 PM EDT
Nautical Twilight 4:01 AM EDT 9:36 PM EDT
Astronomical Twilight 3:10 AM EDT 10:27 PM EDT
Moon 9:42 PM EDT (7/14) 8:01 AM EDT (7/14)
Length of Visible Light 16h 08m
Length of Day
15h 01m
Waning Gibbous, 93% of the Moon is Illuminated
Jul 14
Waning Gibbous
Jul 18
Last Quarter
Jul 26
New
Aug 3
First Quarter
Aug 10
Full

Hourly Weather History & Observations

Time (EDT) Temp. Heat Index Dew Point Humidity Pressure Visibility Wind Dir Wind Speed Gust Speed Precip Events Conditions
12:53 AM 73.9 °F - 66.0 °F 76% 29.87 in 10.0 mi SSW 9.2 mph - 0.00 in   Mostly Cloudy
1:09 AM 73.9 °F - 66.0 °F 76% 29.88 in 10.0 mi SW 12.7 mph 19.6 mph N/A   Overcast
1:53 AM 73.0 °F - 66.0 °F 79% 29.86 in 10.0 mi SW 9.2 mph - N/A   Overcast
2:33 AM 72.0 °F - 68.0 °F 87% 29.86 in 1.8 mi SSW 15.0 mph 20.7 mph 0.02 in Rain Heavy Rain
2:39 AM 71.1 °F - 68.0 °F 90% 29.86 in 2.0 mi SSW 10.4 mph - 0.02 in Rain , Thunderstorm Light Thunderstorms and Rain
2:46 AM 71.1 °F - 68.0 °F 90% 29.86 in 3.0 mi SSW 12.7 mph - 0.03 in Rain , Thunderstorm Thunderstorms and Rain
2:50 AM 71.6 °F - 68.0 °F 88% 29.85 in 2.5 mi SSW 11.5 mph - 0.03 in Rain Light Rain
2:53 AM 71.1 °F - 68.0 °F 90% 29.84 in 5.0 mi SSW 9.2 mph - 0.04 in Rain Light Rain
3:09 AM 72.0 °F - 68.0 °F 87% 29.86 in 8.0 mi SW 8.1 mph - 0.00 in Rain Light Rain
3:14 AM 72.0 °F - 68.0 °F 87% 29.86 in 2.0 mi SSW 8.1 mph - 0.01 in Rain Heavy Rain
3:28 AM 72.0 °F - 68.0 °F 87% 29.86 in 6.0 mi SSW 6.9 mph - 0.01 in Rain Light Rain
3:53 AM 71.1 °F - 69.1 °F 93% 29.84 in 6.0 mi SSW 5.8 mph - 0.03 in Rain Light Rain
4:09 AM 72.0 °F - 69.1 °F 91% 29.85 in 7.0 mi South 4.6 mph - 0.00 in   Mostly Cloudy
4:53 AM 72.0 °F - 69.1 °F 91% 29.84 in 7.0 mi Calm Calm - 0.01 in Rain Light Rain
5:19 AM 71.1 °F - 68.0 °F 90% 29.86 in 6.0 mi Calm Calm - 0.01 in   Mostly Cloudy
5:42 AM 71.1 °F - 68.0 °F 90% 29.86 in 4.0 mi Calm Calm - 0.02 in   Mostly Cloudy
5:53 AM 71.1 °F - 69.1 °F 93% 29.85 in 4.0 mi Calm Calm - 0.02 in   Mostly Cloudy
6:33 AM 72.0 °F - 69.1 °F 91% 29.88 in 4.0 mi Calm Calm - N/A   Scattered Clouds
6:53 AM 72.0 °F - 70.0 °F 93% 29.87 in 4.0 mi South 4.6 mph - N/A   Scattered Clouds
6:58 AM 72.0 °F - 70.0 °F 93% 29.89 in 5.0 mi SSW 5.8 mph - N/A   Mostly Cloudy
7:09 AM 73.0 °F - 70.0 °F 90% 29.89 in 6.0 mi SSW 8.1 mph - N/A   Mostly Cloudy
7:16 AM 73.0 °F - 70.0 °F 90% 29.89 in 6.0 mi SSW 8.1 mph - N/A   Overcast
7:31 AM 73.0 °F - 69.1 °F 87% 29.89 in 7.0 mi SSW 5.8 mph - N/A   Overcast
7:53 AM 73.9 °F - 70.0 °F 87% 29.88 in 8.0 mi SW 8.1 mph - N/A   Overcast
8:53 AM 75.0 °F - 71.1 °F 87% 29.88 in 9.0 mi SW 9.2 mph - 0.01 in   Overcast
9:08 AM 75.9 °F - 71.1 °F 85% 29.90 in 9.0 mi WSW 6.9 mph - N/A   Mostly Cloudy
9:31 AM 77.0 °F - 71.1 °F 82% 29.90 in 10.0 mi SW 9.2 mph - N/A   Mostly Cloudy
9:53 AM 78.1 °F - 71.1 °F 79% 29.88 in 10.0 mi WSW 6.9 mph - N/A   Mostly Cloudy
10:04 AM 78.1 °F - 71.1 °F 79% 29.90 in 10.0 mi Variable 5.8 mph - N/A   Scattered Clouds
10:17 AM 79.0 °F - 71.1 °F 77% 29.90 in 10.0 mi West 5.8 mph - N/A   Mostly Cloudy
10:31 AM 80.1 °F 83.8 °F 72.0 °F 76% 29.90 in 10.0 mi SW 5.8 mph - N/A   Mostly Cloudy
10:53 AM 80.1 °F 83.2 °F 70.0 °F 71% 29.88 in 10.0 mi Calm Calm - N/A   Scattered Clouds
11:53 AM 82.9 °F 86.5 °F 69.1 °F 63% 29.88 in 10.0 mi SSW 6.9 mph - N/A   Clear
12:53 PM 84.0 °F 87.0 °F 68.0 °F 58% 29.87 in 10.0 mi WSW 9.2 mph - N/A   Partly Cloudy
1:53 PM 82.9 °F 87.0 °F 70.0 °F 65% 29.86 in 10.0 mi South 5.8 mph - N/A   Scattered Clouds
2:53 PM 80.6 °F 83.9 °F 69.8 °F 70% 29.87 in 10.0 mi SE 10.4 mph - N/A   Mostly Cloudy
3:53 PM 80.6 °F 83.9 °F 69.8 °F 70% 29.86 in 10.0 mi SSE 6.9 mph - N/A   Mostly Cloudy
4:53 PM 82.9 °F 87.5 °F 71.1 °F 67% 29.83 in 10.0 mi SSE 6.9 mph - N/A   Partly Cloudy
5:53 PM 80.6 °F 83.9 °F 69.8 °F 70% 29.85 in 8.0 mi SSW 11.5 mph - N/A Rain Light Rain
6:53 PM 75.0 °F - 72.0 °F 90% 29.84 in 7.0 mi South 8.1 mph - 0.00 in   Mostly Cloudy
7:53 PM 75.0 °F - 71.1 °F 87% 29.85 in 9.0 mi SSW 8.1 mph - N/A   Mostly Cloudy
8:53 PM 73.9 °F - 71.1 °F 91% 29.86 in 7.0 mi SSW 6.9 mph - 0.00 in Rain Light Rain
9:43 PM 73.9 °F - 71.1 °F 91% 29.87 in 6.0 mi South 10.4 mph - 0.00 in   Mostly Cloudy
9:53 PM 73.9 °F - 71.1 °F 91% 29.85 in 6.0 mi South 9.2 mph - 0.00 in   Mostly Cloudy
10:36 PM 73.0 °F - 71.1 °F 93% 29.86 in 6.0 mi South 9.2 mph - N/A   Mostly Cloudy
10:53 PM 73.9 °F - 71.1 °F 91% 29.85 in 6.0 mi South 9.2 mph - N/A   Overcast
11:53 PM 73.9 °F - 71.1 °F 91% 29.85 in 5.0 mi South 5.8 mph - 0.00 in Rain Light Rain